Regional Weather Roundup
Issued by NWS Sioux Falls, SD

Home | Current Version | Previous Version | Text Only | Print | Product List | Glossary On
Versions: 1 2 3 4 5 6 7 8 9 10 11 12 13 14 15 16 17 18 19 20 21 22 23 24 25 26 27 28 29 30 31 32 33 34 35 36 37 38 39 40 41 42 43 44 45 46 47 48 49 50
000
ASUS43 KFSD 020110
RWRFSD

WEATHER ROUNDUP FOR SE SOUTH DAKOTA/SW MINNESOTA/NW IOWA
NATIONAL WEATHER SERVICE SIOUX FALLS SD
800 PM CDT WED OCT 01 2014

NOTE: "FAIR" INDICATES FEW OR NO CLOUDS BELOW 12,000 FEET WITH NO
SIGNIFICANT WEATHER AND OR OBSTRUCTIONS TO VISIBILITY.


SDZ038>040-050-052>070-020200-
SOUTHEAST SOUTH DAKOTA

CITY           SKY/WX    TMP DP  RH WIND       PRES   REMARKS
CHAMBERLAIN    PTCLDY    62  48  60 N12       29.85R
HURON          PTCLDY    62  48  60 N13       29.81R
MADISON        FAIR      57  52  82 NW6       29.80R
MITCHELL       PTCLDY    62  50  64 NW7       29.80R
SIOUX FALLS    PTCLDY    61  53  75 CALM      29.79R
WINNER         MOCLDY    61  47  59 N10       29.85R
YANKTON        PTCLDY    64  52  63 NW7       29.78R
$$

MNZ071-072-080-081-089-090-097-098-020200-
SOUTHWEST MINNESOTA

CITY           SKY/WX    TMP DP  RH WIND       PRES   REMARKS
FAIRMONT       MOCLDY    63  57  82 SE6       29.78S
JACKSON        MOCLDY    63  59  88 SE3       29.79R
LUVERNE        PTCLDY    64  52  63 NW6       29.78R
MARSHALL       PTCLDY    63  55  77 CALM      29.77R
MONTEVIDEO     MOCLDY    63  57  82 SW3       29.78R
PIPESTONE      PTCLDY    63  52  67 N6        29.79R
REDWOOD FALLS  MOCLDY    58  54  86 S6        29.76R
TRACY          MOCLDY    63  58  85 E3        29.78R
WINDOM         MOCLDY    64  61  88 SE6       29.79R
WORTHINGTON    MOCLDY    63  59  88 E5        29.79R
$$

IAZ001>003-012>014-020>022-031-032-NEZ013-014-SDZ071-020200-
NORTHWEST IOWA

CITY           SKY/WX    TMP DP  RH WIND       PRES   REMARKS
CHEROKEE       MOCLDY    63  60  90 CALM      29.77R
DENISON        MOCLDY    66  63  88 SE5       29.75R
ESTHERVILLE    MOCLDY    60  58  92 E3        29.78R
LE MARS        PTCLDY    64  59  82 CALM      29.77R
ORANGE CITY    PTCLDY    68  57  68 CALM      29.78R
SHELDON        MOCLDY    63  59  88 CALM      29.77R
SIOUX CITY     PTCLDY    68  59  73 N6        29.76R
SPENCER        MOCLDY    61  58  90 SE8       29.77R
STORM LAKE     MOCLDY    64  59  82 SE5       29.79R
$$

ABBREVIATIONS USED IN REMARKS
   TC - TEMPERATURE IN CELSIUS
  WCI - WIND CHILL INDEX
   HX - HEAT INDEX
  VSB - VISIBILITY



USA.gov is the U.S. government's official web portal to all federal, state and local government web resources and services.